When you browse on this site, cookies collect data to enhance your experience and personalize the content and advertising you see.
Visit our Privacy Policy to learn more. By continuing to use the site, you agree to this use of cookies and data.
  • In United Kingdom
  • List of Countries
  • For 7 days
  • Water Temperature
  • Satellite Maps
  • Weather Map
  • Weather Widgets
  • user-avatar
    Login

    Hourly Weather Głuchołazy

    Today, 20 June, Thursday

    Time Temperature Precipitation Wind Pressure Humidity
    00:00 +18°C° 0 mm 2 mps 730 mmHg 81%
    01:00 +18°C° 0 mm 2 mps 730 mmHg 82%
    02:00 +18°C° 0 mm 2 mps 730 mmHg 83%
    03:00 +18°C° 0 mm 2 mps 730 mmHg 84%
    04:00 +18°C° 0 mm 2 mps 730 mmHg 85%
    05:00 +20°C° 0 mm 2 mps 730 mmHg 81%
    06:00 +21°C° 0 mm 2 mps 731 mmHg 77%
    07:00 +24°C° 0 mm 1 mps 731 mmHg 71%
    08:00 +25°C° 0.1 mm 1 mps 731 mmHg 66%
    09:00 +27°C° 0.1 mm 1 mps 731 mmHg 61%
    10:00 +28°C° 0.1 mm 1 mps 731 mmHg 56%
    11:00 +29°C° 0.1 mm 1 mps 731 mmHg 53%
    12:00 +29°C° 0.1 mm 1 mps 731 mmHg 50%
    13:00 +30°C° 0.1 mm 1 mps 731 mmHg 47%
    14:00 +29°C° 0.2 mm 1 mps 731 mmHg 50%
    15:00 +29°C° 0.2 mm 1 mps 730 mmHg 53%
    16:00 +29°C° 0.2 mm 1 mps 730 mmHg 55%
    17:00 +27°C° 0.3 mm 1 mps 730 mmHg 64%
    18:00 +25°C° 0.3 mm 2 mps 730 mmHg 72%
    19:00 +24°C° 0.3 mm 2 mps 730 mmHg 80%
    20:00 +21°C° 0.2 mm 2 mps 730 mmHg 83%
    21:00 +21°C° 0.2 mm 1 mps 731 mmHg 87%
    22:00 +19°C° 0.2 mm 1 mps 731 mmHg 90%
    23:00 +19°C° 0 mm 1 mps 731 mmHg 89%

    Tomorrow, 21 June, Friday

    Time Temperature Precipitation Wind Pressure Humidity
    00:00 +19°C° 0 mm 1 mps 732 mmHg 88%
    01:00 +19°C° 0 mm 1 mps 732 mmHg 88%
    02:00 +19°C° 0 mm 1 mps 732 mmHg 88%
    03:00 +19°C° 0 mm 1 mps 732 mmHg 89%
    04:00 +18°C° 0 mm 1 mps 732 mmHg 89%
    05:00 +20°C° 0.1 mm 1 mps 732 mmHg 88%
    06:00 +20°C° 0.1 mm 2 mps 733 mmHg 86%
    07:00 +21°C° 0.1 mm 2 mps 733 mmHg 84%
    08:00 +21°C° 0.3 mm 2 mps 733 mmHg 85%
    09:00 +21°C° 0.3 mm 2 mps 734 mmHg 86%
    10:00 +21°C° 0.3 mm 2 mps 734 mmHg 86%
    11:00 +21°C° 0.3 mm 2 mps 734 mmHg 84%
    12:00 +23°C° 0.3 mm 2 mps 733 mmHg 81%
    13:00 +23°C° 0.3 mm 2 mps 733 mmHg 78%
    14:00 +24°C° 0.5 mm 2 mps 733 mmHg 77%
    15:00 +24°C° 0.5 mm 2 mps 733 mmHg 76%
    16:00 +24°C° 0.5 mm 2 mps 733 mmHg 75%
    17:00 +23°C° 0.3 mm 2 mps 733 mmHg 79%
    18:00 +23°C° 0.3 mm 2 mps 734 mmHg 82%
    19:00 +22°C° 0.3 mm 1 mps 734 mmHg 85%
    20:00 +20°C° 0.2 mm 2 mps 734 mmHg 88%
    21:00 +19°C° 0.2 mm 2 mps 734 mmHg 91%
    22:00 +18°C° 0.2 mm 2 mps 735 mmHg 94%
    23:00 +17°C° 0 mm 2 mps 735 mmHg 95%

    Day after tomorrow, 22 June, Saturday

    Time Temperature Precipitation Wind Pressure Humidity
    00:00 +17°C° 0 mm 2 mps 735 mmHg 96%
    01:00 +17°C° 0 mm 2 mps 735 mmHg 96%
    02:00 +16°C° 0 mm 2 mps 735 mmHg 97%
    03:00 +16°C° 0 mm 2 mps 735 mmHg 97%
    04:00 +15°C° 0 mm 2 mps 735 mmHg 98%
    05:00 +16°C° 0 mm 3 mps 736 mmHg 97%
    06:00 +16°C° 0 mm 3 mps 736 mmHg 96%
    07:00 +17°C° 0 mm 3 mps 736 mmHg 95%
    08:00 +17°C° 0 mm 3 mps 736 mmHg 94%
    09:00 +17°C° 0 mm 3 mps 736 mmHg 92%
    10:00 +18°C° 0 mm 3 mps 736 mmHg 91%
    11:00 +18°C° 0.1 mm 3 mps 736 mmHg 90%
    12:00 +19°C° 0.1 mm 3 mps 736 mmHg 89%
    13:00 +19°C° 0.1 mm 3 mps 736 mmHg 88%
    14:00 +20°C° 0.8 mm 3 mps 736 mmHg 88%
    15:00 +20°C° 0.8 mm 3 mps 735 mmHg 89%
    16:00 +20°C° 0.8 mm 3 mps 735 mmHg 89%
    17:00 +19°C° 2 mm 3 mps 735 mmHg 92%
    18:00 +19°C° 2 mm 3 mps 735 mmHg 94%
    19:00 +18°C° 2 mm 3 mps 735 mmHg 96%
    20:00 +18°C° 1.3 mm 3 mps 735 mmHg 97%
    21:00 +18°C° 1.3 mm 2 mps 735 mmHg 98%
    22:00 +18°C° 1.3 mm 2 mps 735 mmHg 98%
    23:00 +17°C° 0.4 mm 2 mps 735 mmHg 98%

    23 June, Sunday

    Time Temperature Precipitation Wind Pressure Humidity
    00:00 +17°C° 0.4 mm 3 mps 735 mmHg 97%
    01:00 +17°C° 0.4 mm 3 mps 735 mmHg 97%
    02:00 +17°C° 0.1 mm 3 mps 735 mmHg 97%
    03:00 +16°C° 0.1 mm 3 mps 735 mmHg 97%
    04:00 +16°C° 0.1 mm 3 mps 735 mmHg 97%
    05:00 +14°C° 0.3 mm 3 mps 736 mmHg 96%
    06:00 +14°C° 0.3 mm 3 mps 736 mmHg 96%
    07:00 +14°C° 0.3 mm 3 mps 736 mmHg 95%
    08:00 +16°C° 0 mm 3 mps 736 mmHg 91%
    09:00 +17°C° 0 mm 3 mps 737 mmHg 88%
    10:00 +18°C° 0 mm 4 mps 737 mmHg 85%
    11:00 +19°C° 0 mm 4 mps 737 mmHg 82%
    12:00 +19°C° 0 mm 4 mps 737 mmHg 80%
    13:00 +20°C° 0 mm 4 mps 737 mmHg 78%
    14:00 +20°C° 0 mm 4 mps 737 mmHg 77%
    15:00 +21°C° 0 mm 4 mps 737 mmHg 76%
    16:00 +21°C° 0 mm 4 mps 737 mmHg 75%
    17:00 +20°C° 0 mm 4 mps 737 mmHg 78%
    18:00 +20°C° 0 mm 3 mps 737 mmHg 81%
    19:00 +19°C° 0 mm 3 mps 737 mmHg 84%
    20:00 +18°C° 0 mm 3 mps 738 mmHg 86%
    21:00 +17°C° 0 mm 2 mps 738 mmHg 87%
    22:00 +17°C° 0 mm 2 mps 738 mmHg 89%
    23:00 +16°C° 0 mm 2 mps 738 mmHg 91%

    24 June, Monday

    Time Temperature Precipitation Wind Pressure Humidity
    00:00 +16°C° 0 mm 2 mps 738 mmHg 93%
    01:00 +15°C° 0 mm 1 mps 738 mmHg 95%
    02:00 +15°C° 0 mm 1 mps 738 mmHg 95%
    03:00 +15°C° 0 mm 2 mps 738 mmHg 96%
    04:00 +15°C° 0 mm 2 mps 738 mmHg 96%
    05:00 +16°C° 0 mm 2 mps 739 mmHg 93%
    06:00 +17°C° 0 mm 2 mps 739 mmHg 90%
    07:00 +18°C° 0 mm 2 mps 739 mmHg 88%
    08:00 +18°C° 0 mm 2 mps 740 mmHg 85%
    09:00 +19°C° 0 mm 3 mps 740 mmHg 83%
    10:00 +20°C° 0 mm 3 mps 740 mmHg 81%
    11:00 +21°C° 0 mm 3 mps 740 mmHg 81%
    12:00 +21°C° 0 mm 3 mps 740 mmHg 80%
    13:00 +22°C° 0 mm 3 mps 740 mmHg 80%
    14:00 +22°C° 0.1 mm 3 mps 740 mmHg 79%
    15:00 +22°C° 0.1 mm 3 mps 740 mmHg 78%
    16:00 +24°C° 0.1 mm 3 mps 740 mmHg 77%
    17:00 +23°C° 0 mm 2 mps 740 mmHg 80%
    18:00 +23°C° 0 mm 2 mps 740 mmHg 83%
    19:00 +22°C° 0 mm 1 mps 740 mmHg 86%
    20:00 +22°C° 0 mm 1 mps 740 mmHg 87%
    21:00 +21°C° 0 mm 1 mps 740 mmHg 89%
    22:00 +20°C° 0 mm 1 mps 741 mmHg 90%
    23:00 +20°C° 0 mm 1 mps 741 mmHg 92%

    25 June, Tuesday

    Time Temperature Precipitation Wind Pressure Humidity
    00:00 +19°C° 0 mm 1 mps 741 mmHg 93%
    01:00 +19°C° 0 mm 1 mps 740 mmHg 94%
    02:00 +19°C° 0 mm 1 mps 740 mmHg 95%
    03:00 +19°C° 0 mm 1 mps 740 mmHg 95%
    04:00 +19°C° 0 mm 1 mps 740 mmHg 96%
    05:00 +20°C° 0 mm 1 mps 740 mmHg 93%
    06:00 +21°C° 0 mm 1 mps 741 mmHg 91%
    07:00 +22°C° 0 mm 1 mps 741 mmHg 89%
    08:00 +23°C° 0.1 mm 2 mps 741 mmHg 85%
    09:00 +24°C° 0.1 mm 2 mps 741 mmHg 80%
    10:00 +25°C° 0.1 mm 2 mps 741 mmHg 76%
    11:00 +26°C° 0 mm 2 mps 741 mmHg 74%
    12:00 +26°C° 0 mm 2 mps 741 mmHg 71%
    13:00 +27°C° 0 mm 2 mps 741 mmHg 68%
    14:00 +27°C° 0 mm 2 mps 741 mmHg 68%
    15:00 +27°C° 0 mm 2 mps 740 mmHg 69%
    16:00 +28°C° 0 mm 2 mps 740 mmHg 69%
    17:00 +27°C° 0 mm 2 mps 740 mmHg 73%
    18:00 +26°C° 0 mm 2 mps 740 mmHg 78%
    19:00 +25°C° 0 mm 2 mps 740 mmHg 82%
    20:00 +24°C° 0 mm 1 mps 740 mmHg 85%
    21:00 +23°C° 0 mm 1 mps 741 mmHg 89%
    22:00 +22°C° 0 mm 1 mps 741 mmHg 92%
    23:00 +22°C° 0 mm 1 mps 741 mmHg 93%
    Show more